Location: Lancaster
(34.6980°N, 118.1360°W)
Time: 12:55:23
(UTC-07:00)

Vanguard 1 Rocket - All Passes

Search period start: 20 April 2018 00:00
Search period end: 30 April 2018 00:00
Orbit: 655 x 4223 km, 34.3° (Epoch: 19 April)

Date Brightness Start Highest point End Pass type
(mag) Time Alt. Az. Time Alt. Az. Time Alt. Az.
20 Apr - 04:23:06 10° S 04:38:30 21° SE 04:50:10 10° ESE visible
20 Apr - 06:48:19 10° SW 07:08:30 48° SSE 07:19:40 10° E daylight
20 Apr - 09:20:34 10° WSW 09:36:43 79° S 09:44:38 10° E daylight
20 Apr - 11:53:10 10° W 12:03:10 82° S 12:08:39 10° ESE daylight
20 Apr - 14:22:46 10° W 14:27:41 27° SSW 14:31:31 10° SSE daylight
21 Apr - 03:16:38 10° SSE 03:24:34 12° SE 03:31:43 10° ESE visible
21 Apr - 05:34:41 10° SSW 05:55:10 38° SSE 06:07:59 10° E visible
21 Apr - 08:05:07 10° WSW 08:24:25 69° SSE 08:34:05 10° E daylight
21 Apr - 10:38:42 10° W 10:51:48 88° S 10:58:24 10° E daylight
21 Apr - 13:09:48 10° W 13:17:16 50° SSW 13:21:58 10° SE daylight
22 Apr - 04:22:34 10° SSW 04:41:27 28° SE 04:55:05 10° E visible
22 Apr - 06:50:00 10° SW 07:11:33 58° SSE 07:23:11 10° E daylight
22 Apr - 09:23:21 10° WSW 09:39:57 85° S 09:48:01 10° E daylight
22 Apr - 11:56:14 10° W 12:06:27 74° SSW 12:12:00 10° ESE daylight
22 Apr - 14:26:31 10° W 14:30:37 19° SW 14:33:56 10° S daylight
23 Apr - 03:12:58 10° S 03:27:31 18° SE 03:39:42 10° ESE visible
23 Apr - 05:35:46 10° SW 05:58:06 46° SSE 06:11:42 10° E visible
23 Apr - 08:07:33 10° WSW 08:27:33 77° SSE 08:37:28 10° E daylight
23 Apr - 10:41:42 10° W 10:55:06 87° S 11:01:47 10° E daylight
23 Apr - 13:13:02 10° W 13:20:19 39° SSW 13:24:59 10° SE daylight
24 Apr - 04:22:52 10° SSW 04:44:15 35° SE 04:59:17 10° E visible
24 Apr - 06:51:59 10° SW 07:14:32 66° SSE 07:26:35 10° E daylight
24 Apr - 09:26:13 10° W 09:43:11 88° S 09:51:25 10° E daylight
24 Apr - 11:59:17 10° W 12:09:38 64° SSW 12:15:16 10° ESE daylight
24 Apr - 14:30:57 10° WSW 14:33:26 13° SW 14:35:37 10° SSW daylight
25 Apr - 03:11:54 10° S 03:30:15 25° SE 03:45:11 10° E visible
25 Apr - 05:37:14 10° SW 06:00:58 55° SSE 06:15:12 10° E visible
25 Apr - 08:10:09 10° WSW 08:30:40 83° S 08:40:49 10° E daylight
25 Apr - 10:44:41 10° W 10:58:21 82° SSW 11:05:11 10° ESE daylight
25 Apr - 13:16:23 10° W 13:23:15 30° SW 13:27:47 10° SSE daylight
26 Apr - 02:04:32 10° SSE 02:16:18 15° SE 02:27:13 10° ESE visible
26 Apr - 04:23:46 10° SSW 04:46:57 43° SSE 05:03:05 10° E visible
26 Apr - 06:54:13 10° WSW 07:17:32 74° SSE 07:29:56 10° E daylight
26 Apr - 09:29:06 10° W 09:46:25 88° S 09:54:48 10° E daylight
26 Apr - 12:02:20 10° W 12:12:43 53° SSW 12:18:26 10° SE daylight
27 Apr - 03:11:56 10° SSW 03:32:50 32° SE 03:49:39 10° E visible
27 Apr - 05:39:03 10° SW 06:03:47 63° SSE 06:18:36 10° E visible
27 Apr - 08:12:54 10° W 08:33:49 87° S 08:44:11 10° E daylight
27 Apr - 10:47:37 10° W 11:01:33 75° SSW 11:08:30 10° ESE daylight
27 Apr - 13:19:58 10° W 13:26:01 22° SW 13:30:16 10° S daylight
28 Apr - 02:02:29 10° S 02:18:51 21° SE 02:33:49 10° E visible
28 Apr - 04:25:06 10° SW 04:49:36 51° SSE 05:06:36 10° E visible
28 Apr - 06:56:40 10° WSW 07:20:31 80° SSE 07:33:15 10° E daylight
28 Apr - 09:32:01 10° W 09:49:38 86° S 09:58:11 10° E daylight
28 Apr - 12:05:25 10° W 12:15:39 43° SW 12:21:26 10° SE daylight
29 Apr - 01:00:26 10° SE 01:05:08 11° SE 01:09:50 10° ESE visible
29 Apr - 03:12:40 10° SSW 03:35:18 39° SE 03:53:35 10° E visible
29 Apr - 05:41:09 10° SW 06:06:36 71° SSE 06:21:55 10° ENE visible
29 Apr - 08:15:42 10° W 08:36:59 89° S 08:47:33 10° E daylight
29 Apr - 10:50:32 10° WNW 11:04:38 66° SSW 11:11:43 10° ESE daylight
29 Apr - 13:24:00 10° W 13:28:39 16° SW 13:32:13 10° SSW daylight
